Home   Weather   Cockburn Town   Past weeks
Flag for Turks and Caicos Islands

Past Weather in Cockburn Town, Turks and Caicos Islands — Yesterday and Last 2 Weeks

Now
77 °F

Passing clouds.


Feels Like: 78 °F
Forecast: 83 / 80 °F
Wind: No wind

Location: Puerto Plata International

Current Time: May 24, 2019 at 11:42:23 pm

Latest Report: May 24, 2019 at 11:00 pm


Visibility: N/A

Pressure: 29.95 "Hg

Humidity: 89%

Dew Point: 73 °F

Location of Cockburn TownLocation

Past Weather in Cockburn Town — Graph

°F

Cockburn Town Temperature Yesterday

Maximum temperature yesterday: 88 °F (at 1:00 pm)
Minimum temperature yesterday: 73 °F (at 2:00 am)
Average temperature yesterday: 82 °F

High & Low Weather Summary for the Past Weeks

 TemperatureHumidityPressure
High95 °F (May 13, 2:00 pm)100% (May 16, 2:00 am)30.01 "Hg (May 16, 2:00 am)
Low70 °F (May 24, 5:00 am)44% (May 19, 3:00 pm)29.86 "Hg (May 21, 4:00 pm)
Average82 °F80%29.94 "Hg
* Reported May 9 10:00 pm — May 24 10:00 pm, Cockburn Town. Weather by CustomWeather, © 2019

Note: Actual official high and low records may vary slightly from our data, if they occured in-between our weather recording intervals... More about our weather records

Advertising

Cockburn Town Weather History for the Previous 24 Hours

Scroll right to see more
 ConditionsComfort  
Time TempWeatherWind HumidityBarometerVisibility
10:00 pm
Fri, May 24
79 °FPassing clouds.No wind89%29.95 "HgN/A
9:00 pm79 °FPassing clouds.No wind89%29.95 "HgN/A
8:00 pm81 °FPassing clouds.9 mph84%29.92 "HgN/A
7:00 pm82 °FScattered clouds.12 mph74%29.89 "HgN/A
6:00 pm82 °FBroken clouds.14 mph79%29.89 "HgN/A
5:00 pm84 °FScattered clouds.17 mph70%29.89 "HgN/A
4:00 pm88 °FPassing clouds.18 mph66%29.89 "HgN/A
3:00 pm86 °FScattered clouds.23 mph75%29.89 "HgN/A
2:00 pm88 °FScattered clouds.17 mph66%29.89 "HgN/A
1:00 pm86 °FPassing clouds.23 mph70%29.92 "HgN/A
12:00 pm86 °FScattered clouds.23 mph70%29.95 "HgN/A
11:00 am86 °FScattered clouds.12 mph70%29.95 "HgN/A
10:00 am84 °FPartly sunny.6 mph70%29.95 "HgN/A
9:00 am82 °FPartly sunny.6 mph74%29.95 "HgN/A
8:00 am77 °FPartly sunny.No wind83%29.95 "HgN/A
7:00 am72 °FScattered clouds.No wind94%29.92 "HgN/A
5:00 am70 °FPassing clouds.No wind94%29.89 "HgN/A
2:00 am73 °FPassing clouds.No wind94%29.92 "HgN/A
11:00 pm
Thu, May 23
77 °FPassing clouds.No wind94%29.95 "HgN/A
Weather by CustomWeather, © 2019

See weather overview